Sie sind vermutlich noch nicht im Forum angemeldet - Klicken Sie hier um sich kostenlos anzumelden  
NOHAB-GM
Zurück zur Rundnasen-Homepage
Sie können sich hier anmelden
Dieses Forum hat 1.747 Themen
und zur Zeit 2.315 Beiträge
Sie haben keine Schreibrechte
 Externe Links  »Neues Thema erstellen«
Forum Information
   Betreff Absender Antworten Zugriffe Letzter Beitrag
Retro Wochenenden Balaton 2020 Ronny Quaß 1 118 06.06.2020 15:44
Holzzug in Holzminden Carsten H 0 278 28.04.2019 22:29
[HU][AT][D] Zum Balaton? Nur mit einer NoHAB! NOHAB-Pappi 0 231 10.03.2019 06:25
Inlandsbanan med Timmertåg på väg in till Östersund. NOHAB-Pappi 0 154 08.03.2019 23:48
Åndalsnes 1974 NOHAB-Pappi 0 142 06.03.2019 06:10
MX 1023 with UFM 120 SimonTogDK 0 150 05.03.2019 19:24
Extratåg NOHAB-Pappi 0 182 02.03.2019 07:43
[DE] NOHAB meets . . . NOHAB-Pappi 0 174 28.02.2019 06:17
M61 019 in neuer Lackierung NOHAB-Pappi 1 202 21.02.2019 07:33
643 NOHAB-Pappi 0 158 16.02.2019 21:36
MY 1151 Holz-Kutscher 0 154 15.02.2019 19:16
[DK] MZ 1420 på Århus H med IC NOHAB-Pappi 0 138 13.02.2019 06:55
Diverse ældre DSB diesellokomotiver NOHAB-Pappi 0 138 10.02.2019 06:56
Trondheim med dagtog fra Sverige NOHAB-Pappi 0 122 10.02.2019 06:51
Flere gamle DSB MY NOHAB-Pappi 0 150 09.02.2019 03:58
Lidt MZ fra gamle dage hos DSB NOHAB-Pappi 0 150 05.02.2019 07:11
Nohab a Szentendrei Hév vonalán NOHAB-Pappi 0 130 04.02.2019 06:49
Padborg 3. februar 2019 SimonTogDK 0 130 03.02.2019 20:17
NOHAB MY 1155 vor Arbeitszug in Berlin-Buch NOHAB-Fan Magdeburg 0 186 02.02.2019 22:58
Ymse kjøretøy NOHAB-Pappi 0 118 01.02.2019 06:02
[SE] I ett vintrigt Värmland NOHAB-Pappi 0 162 30.01.2019 05:13
Di3 628 forbi Porsgrunn i dag NOHAB-Pappi 0 146 28.01.2019 23:03
Szekler Schnellzug TMX_104 0 142 25.01.2019 19:03
Diverse ældre DSB diesellokomotiver NOHAB-Pappi 0 154 18.01.2019 09:09
[NO] Das Ende der Di4 wird eingeläutet NOHAB-Pappi 0 150 18.01.2019 08:39
MX 1016 i Frihavnen med Danlink NOHAB-Pappi 0 130 17.01.2019 06:02
Facebook-Gruppe "NOHABs in Deutschland und Europa" NOHAB-Interessent 2 182 24.01.2019 13:08
Ungarn 1991 NOHAB-Pappi 0 142 13.01.2019 06:39
Ungarn aktuell NOHAB-Pappi 0 130 10.01.2019 17:02
My1138+My1151 TMX_104 0 166 07.01.2019 19:52
[DK] MX 1018 til arkivet NOHAB-Pappi 0 142 04.01.2019 14:45
Fast wie neu: NOHAB My 1155 NOHAB-Fan Magdeburg 0 166 02.01.2019 19:38
1148 , 1147 und mehr in Padborg (Link zu DSO) vectrabaerchen 0 150 02.01.2019 14:44
628, 2251 NOHAB-Pappi 0 210 30.12.2018 09:47
[DK] I dag for 40 år siden NOHAB-Pappi 0 162 29.12.2018 07:22
Fra Røros 8.12 NOHAB-Pappi 0 166 09.12.2018 09:24
DI 3 642 i farta igjen NOHAB-Pappi 0 150 03.12.2018 09:21
[DK] DSB ME 1520 NOHAB-Pappi 0 126 02.12.2018 08:57
[DK] MV 1102 med godstog i Esbjerg NOHAB-Pappi 2 174 23.11.2018 17:30
NATO transport till Trident Juncture 18 NOHAB-Pappi 0 114 19.11.2018 07:54
Altmark Rail My 1155 Heute Mittag auf KBS 375 NOHAB-Fan Magdeburg 0 114 15.11.2018 21:41
Di 3 642 på tur igjen NOHAB-Pappi 0 114 15.11.2018 07:01
Die NoHAB My 1138 in Hannover Hbf (2 B.) NOHAB-Fan Magdeburg 0 108 11.11.2018 21:52
MY 1149 at Klanxbüll (Video) SimonTogDK 0 95 11.11.2018 10:23
MY 1149 at Klanxbüll SimonTogDK 2 122 11.11.2018 10:24
Lidt fra Lersøen 1991 NOHAB-Pappi 0 114 09.11.2018 06:18
eine NOHAB im Leinetal NOHAB-Fan Magdeburg 0 114 08.11.2018 15:14
CLR MY 1138 Holz-Kutscher 0 122 07.11.2018 12:29
Altmark Rail MY 1149 NOHAB-Fan Magdeburg 0 126 03.11.2018 22:57
[HR] Kroatiens Eisenbahn wird bunt... 3 Bilder NOHAB-Pappi 0 142 03.11.2018 08:00
MY 1158 with crane SimonTogDK 0 130 02.11.2018 18:33
Gm power på Fryksdalsbanan NOHAB-Pappi 0 126 24.10.2018 20:18
Ældre billeder fra Nykøbing Sjælland på OHJ NOHAB-Pappi 0 166 22.10.2018 19:32
Gera / EBS NOHAB-Pappi 0 158 11.10.2018 07:54
MY 1135 in Taulov SimonTogDK 1 194 10.10.2018 08:42
Strabag-Nohab und Kran NOHAB-Fan Magdeburg 0 138 04.10.2018 15:35
MY 1158 - Skanderborg und Ry SimonTogDK 0 150 24.09.2018 18:48
CFL Cargo på Thybanen! NOHAB-Pappi 0 138 19.09.2018 06:12
MY 1158 between Skanderborg and Ry SimonTogDK 0 158 13.09.2018 22:50
MZ 1459 with cargo from Aalborg SimonTogDK 0 122 11.09.2018 17:48
Fahrt nach Tapolca und zurück mit CLR 1138 und M61 017 NOHAB-Pappi 0 146 11.09.2018 08:07
150 Jahre MÁV Fahrt nach Szentendre NOHAB-Pappi 0 134 10.09.2018 08:35
[SE] NOHAB (NoHAB) PRODUKTKATALOG 1944 (PDF) NOHAB-Pappi 1 1.501 05.09.2018 07:10
MY 1126 Jutland trip - 19/08/2018 - Video SimonTogDK 0 130 03.09.2018 18:34
MY 1126 Jutland trip - 19/08/2018 SimonTogDK 0 170 28.08.2018 21:34
MY 1126 Jutland trip video SimonTogDK 1 218 26.08.2018 11:23
Sonderfahrt mit My 1126 Holz-Kutscher 0 158 23.08.2018 13:17
MY 1126 on Jutlands trip SimonTogDK 0 154 23.08.2018 06:42
CFL MY 1146 with ballast cleaning machine SimonTogDK 0 202 19.08.2018 19:34
[SE] Kiruna, tur med tog 93 og 99, del 4 - TMX x 2 NOHAB-Pappi 0 134 17.08.2018 08:04
MX 1023 + MX 1029 with ET SimonTogDK 0 134 16.08.2018 21:51
[RO]: Letzte Reise des letzten Rumänischen Königs Mihai I (Michael I) (m. L.) NOHAB-Pappi 0 170 05.08.2018 23:34
MX 1019 mit Bettungsreinigungsmaschine SimonTogDK 0 154 05.08.2018 15:20
3 602 plassert på en husvegg i Trollhättan. NOHAB-Pappi 0 162 31.07.2018 05:44
Retro-Wochenende am Balaton TMX_104 0 126 30.07.2018 16:23
 Sprung Seite 1  2  3  4  5  6  7  8 - 24  weiter »
NOHAB-GM
Xobor Forum Software von Xobor
Einfach ein eigenes Forum erstellen
Datenschutz